Location: Unspecified
(0.0000°N, 0.0000°E)
Time: 09:26:33
(UTC+02:00)

Daily predictions for brighter satellites

Satellite Brightness Start Highest point End
(mag) Time Altitude Azimuth Time Altitude Azimuth Time Altitude Azimuth
ARIANE 5 R/B 3.9 19:45:52 10° W 19:50:00 77° N 20:22:07 10° E
ARIANE 5 R/B 3.9 19:45:53 10° W 19:50:00 77° N 20:22:07 10° E
ARIANE 5 R/B 3.9 19:45:52 10° W 19:50:01 77° N 20:22:07 10° E
EPKM 4.3 20:06:54 10° WNW 20:11:13 70° SSW 20:32:16 10° ESE
Cosmos-2242 3.1 20:19:30 10° N 20:23:45 88° W 20:28:01 10° S
Lacrosse 5 4.1 20:22:02 10° WNW 20:25:57 23° WSW 20:29:53 10° S
Cosmos 468 Rocket 3.9 20:21:25 10° N 20:26:30 75° ENE 20:31:37 10° SSE
Cosmos 968 Rocket 3.6 20:21:53 10° S 20:26:54 56° ESE 20:31:56 10° NNE
Meteor 1-28 Rocket 3.1 20:24:02 10° NNE 20:27:46 81° ESE 20:31:31 10° S
Nadezhda 4 Rocket 4.3 20:21:31 10° S 20:27:50 76° W 20:34:05 10° N
CZ-4 R/B 4.2 20:26:32 10° SW 20:28:43 15° WSW 20:30:55 10° WNW
Cosmos 1470 4.1 20:25:47 10° NE 20:28:53 22° E 20:32:01 10° SE
Cosmos 1766 Rocket 4.4 20:25:12 10° SSE 20:29:08 31° E 20:33:02 10° NNE
Cosmos 405 Rocket 2.5 20:29:06 10° S 20:32:47 67° E 20:36:26 10° NNE
Helios 1B rocket 3.9 20:29:21 10° N 20:33:16 43° WNW 20:37:12 10° SSW
Resurs 01 Rocket 3.0 20:31:27 10° SE 20:34:42 20° ENE 20:37:55 10° NNE
Ariane H10-3 3.3 20:33:19 10° NW 20:35:16 32° NNE 20:38:43 10° E
NOSS 3-1 (C) 3.9 20:33:18 10° S 20:38:17 30° ESE 20:43:12 10° NE
MSX 3.8 20:39:14 10° SSE 20:45:00 80° ENE 20:50:45 10° N
Spot 2 Rocket 4.2 20:42:50 10° SE 20:47:22 34° ENE 20:51:53 10° NNE
Ariane H10-3 2.8 20:38:53 10° W 20:48:36 78° N 20:50:56 14° E
Cosmos 1092 Rocket 4.4 20:42:52 10° S 20:49:05 68° W 20:55:13 10° N
Cosmos 1378 3.2 20:46:31 10° S 20:50:14 58° E 20:53:54 10° NNE
CZ-2C R/B 4.0 20:46:14 10° SSW 20:50:32 34° WSW 20:54:43 10° NW
Cosmos 1408 Rocket 3.5 20:49:04 10° S 20:53:31 82° E 20:57:55 10° N
Cosmos 1076 Rocket 3.4 20:50:18 10° S 20:54:33 87° E 20:58:48 10° N
Centaur D AC-29 1.9 20:43:18 10° WNW 20:55:19 82° NNE 20:58:07 18° ESE
Resurs 1-3 4.5 20:57:20 17° SE 20:59:59 30° ENE 21:03:48 10° NNE
Ariane H10 3.8 20:56:47 10° WNW 21:00:29 50° NNE 21:17:17 10° E
Chandra Rocket (1) 4.3 20:56:14 10° NW 21:02:17 74° NE 21:19:46 20° ESE
Cosmos 2026 Rocket 3.9 20:56:43 10° S 21:02:46 76° E 21:08:49 10° N
BREEZE-M DEB (TANK) 4.1 20:55:51 10° SSW 21:03:06 31° SE 21:04:49 22° E
Hubble Space Telescope 3.8 21:05:08 10° NW 21:06:44 12° NNW 21:08:20 10° N
Cosmos 1777 Rocket 4.1 21:08:11 10° SSW 21:13:29 78° WNW 21:18:44 10° N
Cosmos 2219 3.4 21:09:30 10° S 21:14:57 45° ESE 21:20:24 10° NNE
HJ-1C 3.2 21:14:45 24° SSE 21:16:37 80° E 21:19:59 10° N
Abrixas 3.1 21:13:58 10° NW 21:16:58 50° SW 21:17:58 33° S
ARIANE 5 R/B 1.5 21:17:36 10° WSW 21:19:19 50° SSW 21:19:19 50° SSW
SJ-6B 4.3 21:16:31 10° S 21:20:15 37° WSW 21:24:02 10° NNW
Cosmos 841 Rocket 3.6 21:15:51 10° NNW 21:21:04 77° WSW 21:25:41 13° S
Ariane H10 2.7 21:18:21 10° WSW 21:21:53 50° S 21:22:17 45° SSE
ARIANE 3 DEB 3.0 21:15:03 10° W 21:22:19 88° S 21:23:40 39° E
ALOS 3.6 21:23:30 22° ENE 21:23:30 22° ENE 21:26:31 10° NNE
GPS 2-15 Rocket1 3.6 21:18:49 10° SW 21:23:13 38° SSE 21:23:56 36° SE
BLOCK DM-SL R/B 4.2 21:20:20 10° W 21:24:43 90° NW 22:02:07 10° E
BLOCK DM-SL R/B 4.2 21:20:20 10° W 21:24:43 90° NNW 22:02:07 10° E
BLOCK DM-SL R/B 4.2 21:20:20 10° W 21:24:43 90° NNE 22:02:07 10° E
BLOCK DM-SL R/B 4.2 21:20:20 10° W 21:24:44 90° NE 22:02:07 10° E
BLOCK DM-SL R/B 4.3 21:20:20 10° W 21:24:44 90° NE 22:02:07 10° E
ATLAS 2A CENTAUR R/B 2.8 21:12:11 10° WSW 21:25:50 59° NW 21:28:40 15° NE
ERBS 2.4 21:22:29 10° SSW 21:25:39 55° SSE 21:25:39 55° SSE
NOAA 12 4.5 21:22:27 10° S 21:27:42 65° WSW 21:32:57 10° NNW
BREEZE-M DEB (TANK) 3.5 21:24:47 10° NW 21:27:54 86° SW 21:33:22 22° SSE
In-Cosmos 22 4.2 21:23:04 10° S 21:28:48 87° W 21:34:33 10° N
FENGYUN 3A 4.5 21:31:34 30° ENE 21:31:34 30° ENE 21:36:11 10° NNE
Aurora 2 Rocket 3.4 21:29:35 10° NW 21:33:28 29° NNE 21:33:57 28° NE
Helios 1A 4.3 21:31:36 10° S 21:35:35 39° WSW 21:39:33 10° NNW
ATLAS CENTAUR R/B 3.7 21:36:47 10° NNE 21:37:08 11° NNE 21:37:08 11° NNE
IUS-1 SRM-2 3.6 21:37:42 10° WNW 21:38:32 22° WNW 21:38:32 22° WNW
METEOR-M 4.1 21:37:26 24° S 21:40:47 82° WSW 21:46:07 10° NNW
Meteor 1-16 Rocket 4.3 21:35:01 10° N 21:40:52 82° W 21:44:43 22° S
NOSS 3-1 (A) 3.2 21:36:50 10° SSW 21:42:35 83° WNW 21:48:20 10° NNE
BLOCK DM-SL R/B 2.0 21:30:52 10° W 21:42:38 89° S 21:43:08 68° E
Cosmos 2322 Rocket 3.8 21:41:47 10° NNE 21:44:18 19° NE 21:44:18 19° NE
Cosmos 1441 Rocket 4.3 21:44:29 13° SSW 21:47:39 43° W 21:51:16 10° NNW
Cosmos 1500 Rocket 3.9 21:50:23 36° SSW 21:52:00 63° W 21:56:18 10° N
Cosmos 1980 Rocket 2.1 21:48:04 10° NNW 21:53:45 84° WSW 21:55:12 52° S
S3M 4.4 21:49:01 10° NNE 21:53:52 42° ENE 21:53:52 42° ENE
SL-16 R/B 3.7 21:53:26 10° NNE 21:56:01 22° NE 21:56:01 22° NE
Cosmos 1697 Rocket 3.9 21:53:36 10° NW 21:58:43 37° WSW 22:02:07 19° SSW
Cosmos 2221 3.9 21:56:27 10° NNW 22:00:24 36° W 22:02:01 26° SW
Cosmos 540 Rocket 3.4 21:57:55 10° NNW 22:02:49 82° NNW 22:02:49 82° NNW
Meteor 2-20 Rocket 4.3 22:07:33 65° S 22:08:33 89° E 22:14:43 10° N
Resurs 01 Rocket 4.1 22:07:56 10° SW 22:10:54 18° WSW 22:13:51 10° WNW
Nimbus 7 Rocket 4.4 22:12:00 10° N 22:17:50 75° WNW 22:18:29 68° SW
Cosmos 2266 Rocket 4.4 22:21:34 42° SSW 22:23:38 62° W 22:29:50 10° N
